Location: Endfield
(51.6667°N, 0.0667°W)
Time: 20:49:35
(UTC+00:00)

UKube-1 - Visible Passes

Search period start: 19 September 2024 00:00
Search period end: 29 September 2024 00:00
Orbit: 573 x 583 km, 98.3° (Epoch: 19 September)

Date Brightness Start Highest point End Pass type
(mag) Time Alt. Az. Time Alt. Az. Time Alt. Az.
19 Sep ? 01:35:04 10° NNE 01:36:46 23° NE 01:36:46 23° NE visible
19 Sep ? 03:10:53 10° N 03:13:03 20° NW 03:13:03 20° NW visible
20 Sep ? 01:39:19 10° NNE 01:41:00 23° NNE 01:41:00 23° NNE visible
20 Sep ? 03:15:15 10° NNW 03:17:17 18° NW 03:17:17 18° NW visible
21 Sep ? 01:43:33 10° NNE 01:45:12 23° NNE 01:45:12 23° NNE visible
21 Sep ? 03:19:36 10° NNW 03:21:29 17° NW 03:21:29 17° NW visible
22 Sep ? 01:47:46 10° NNE 01:49:23 23° NNE 01:49:23 23° NNE visible
22 Sep ? 03:23:56 10° NNW 03:25:39 16° NW 03:25:39 16° NW visible
23 Sep ? 01:51:57 10° NNE 01:53:32 23° NNE 01:53:32 23° NNE visible
23 Sep ? 03:28:15 10° NNW 03:29:48 15° NW 03:29:48 15° NW visible
24 Sep ? 01:56:07 10° NNE 01:57:39 22° NNE 01:57:39 22° NNE visible
24 Sep ? 03:32:33 10° NNW 03:33:56 14° NW 03:33:56 14° NW visible
25 Sep ? 02:00:16 10° NNE 02:01:45 22° NNE 02:01:45 22° NNE visible
25 Sep ? 03:36:51 10° NNW 03:38:01 13° NW 03:38:01 13° NW visible
26 Sep ? 02:04:23 10° NNE 02:05:49 21° NNE 02:05:49 21° NNE visible
26 Sep ? 03:41:08 10° NNW 03:42:05 12° NW 03:42:05 12° NW visible
27 Sep ? 02:08:29 10° NNE 02:09:52 21° NNE 02:09:52 21° NNE visible
27 Sep ? 03:45:26 10° NNW 03:46:08 11° NW 03:46:08 11° NW visible
28 Sep ? 02:12:34 10° NNE 02:13:53 20° N 02:13:53 20° N visible
28 Sep ? 03:49:45 10° NNW 03:50:09 11° NW 03:50:09 11° NW visible
